Location: Newark
(50.4348°N, 30.5552°E)
Time: 20:47:53
(UTC+00:00)

Vanguard 3 - Pass Details

Date: 19 January 2020
Orbit: 508 x 3263 km, 33.3° (Epoch: 19 February)

Event Time Altitude Azimuth Distance (km) Brightness Sun altitude
Rises 19:05:17 0° 248° (WSW) 6,977 12.4 -43.2°
Reaches altitude 10° 19:10:54 10° 241° (WSW) 5,669 11.7 -44.0°
Enters shadow 19:21:35 32° 206° (SSW) 3,391 10.1 -45.5°
